Regional Weather Roundup
Issued by NWS

Home | Current Version | Previous Version | Graphics & Text | Print | Product List | Glossary On
Versions: 1 2 3 4 5 6 7 8 9 10 11 12 13 14 15 16 17 18 19 20 21 22 23 24 25 26 27 28 29 30 31 32 33 34 35 36 37 38 39 40 41 42 43 44 45 46 47 48 49 50
000
ASUS43 KLMK 200910
RWRKY
KENTUCKY REGIONAL WEATHER ROUNDUP
NATIONAL WEATHER SERVICE LOUISVILLE KY
500 AM EDT WED AUG 20 2014

NOTE "FAIR" INDICATES FEW OR NO CLOUDS BELOW 12,000 FEET
WITH NO SIGNIFICANT WEATHER AND/OR OBSTRUCTIONS TO VISIBILITY.

KYZ001>023-026-027-061>063-070>075-201000-
WESTERN AND SOUTH CENTRAL KENTUCKY

CITY           SKY/WX    TMP DP  RH WIND       PRES   REMARKS
PADUCAH        CLEAR     78  74  87 SW6       29.85R
HENDERSON      CLEAR     70  66  88 CALM      29.85S
OWENSBORO      CLEAR     72  72 100 CALM      29.87S
HOPKINSVILLE   CLEAR     75  75 100 S2        29.89R
BOWLING GREEN  CLEAR     75  71  87 SW5       29.89S
GLASGOW        CLEAR     73  73 100 CALM      29.90S
$$

KYZ024-025-028>034-038-045-046-053-201000-
NORTH CENTRAL KENTUCKY

CITY           SKY/WX    TMP DP  RH WIND       PRES   REMARKS
LOUISVILLE/SDF PTCLDY    75  69  81 W3        29.87R
LOUISVILLE/LOU MOCLDY    75  69  81 N3        29.88R
FORT KNOX      CLEAR     68  61  78 S3        29.88R
$$

KYZ035>037-039>044-047>052-055>060-089>105-201000-
NORTHEAST KENTUCKY

CITY           SKY/WX    TMP DP  RH WIND       PRES   REMARKS
LEXINGTON      MOCLDY    71  64  78 S7        29.91F
COVINGTON      MOCLDY    65  62  90 S6        29.88R
FRANKFORT      MOCLDY    69  66  90 NE3       29.89F
$$

KYZ054-064>069-076>088-106>120-201000-
SOUTHEAST KENTUCKY

CITY           SKY/WX    TMP DP  RH WIND       PRES   REMARKS
JACKSON        MOCLDY    70  68  93 VRB5      29.95R
LONDON         MOCLDY    72  68  87 CALM      29.94S
SOMERSET       MOCLDY    70  70 100 CALM      29.93S FOG
MIDDLESBORO    FOG       66  66 100 CALM      29.96S VSB 1/2
MONTICELLO     CLOUDY    70  70 100 CALM      29.94R FOG
$$




USA.gov is the U.S. government's official web portal to all federal, state and local government web resources and services.